Date String (YYYY-MM-DD hh:mm:ss) UTC,Instrument flags,absolute air pressure of the measurement (hPa),sample flow rate (lpm),inlet stack bypass flow (lpm),air temperature of the measurement (°C),ambient temperature measured by the external sensor (°C),aerosol sample conditioner tube jacket temperature (°C),OPC LED temperature (°C),internal box temperature (°C),relative humidity of the measurement (%),span deviation,mass concentration of particles derived from Lorenz-Mie calculation of OPC scattering (μg/m³),mass concentration of particles derived from Lorenz-Mie calculation of OPC scattering (μg/m³),mass concentration of particles derived from Lorenz-Mie calculation of OPC scattering (μg/m³)
DateTimeUTC,F1_M11,P_M11,Q1_M11,Q2_M11,T1_M11,T2_M11,T3_M11,T4_M11,T5_M11,U1_M11,ZSPAN_M11,X2_M11,X0_M11,X1_M11
2023-11-08 10:00:00,SystemResetWarning,0825.2,5.00,000.00,027.5,026.5,000.0,035.9,028.9,14.0,0000.0,0002.43,0008.22,0001.59
2023-11-08 10:01:00,SystemResetWarning,0825.2,5.00,000.00,027.5,026.5,000.0,035.9,028.9,14.0,0000.0,0002.38,0008.00,0001.56
2023-11-08 10:02:00,SystemResetWarning,0825.2,5.00,000.00,027.5,026.5,000.0,035.9,028.9,14.1,0000.0,0002.38,0007.83,0001.56
2023-11-08 10:03:00,SystemResetWarning,0825.2,5.00,000.00,027.5,026.5,000.0,035.9,028.9,14.1,0000.0,0002.35,0007.82,0001.54
2023-11-08 10:04:00,SystemResetWarning,0825.2,5.00,000.00,027.5,026.5,000.0,035.9,028.9,14.0,0000.0,0002.40,0007.36,0001.53
2023-11-08 10:05:00,SystemResetWarning,0825.3,5.01,000.00,027.5,026.5,000.0,035.9,029.0,14.1,0000.0,0002.42,0005.85,0001.52
2023-11-08 10:06:00,SystemResetWarning,0825.2,5.00,000.00,027.5,026.5,000.0,035.9,029.0,14.2,0000.0,0002.41,0006.29,0001.52
2023-11-08 10:07:00,SystemResetWarning,0825.2,5.00,000.00,027.5,026.5,000.0,035.9,028.9,14.4,0000.0,0002.32,0006.50,0001.51
2023-11-08 10:08:00,SystemResetWarning,0825.3,5.00,000.00,027.5,026.5,000.0,035.9,028.9,14.6,0000.0,0002.35,0007.04,0001.53
2023-11-08 10:09:00,SystemResetWarning,0825.3,5.00,000.00,027.5,026.5,000.0,035.9,028.9,14.7,0000.0,0002.44,0007.42,0001.53
2023-11-08 10:10:00,SystemResetWarning,0825.3,4.99,000.00,027.5,026.5,000.0,035.9,029.0,14.7,0000.0,0002.48,0007.86,0001.55
2023-11-08 10:11:00,SystemResetWarning,0825.3,5.00,000.00,027.5,026.5,000.0,035.9,029.0,14.7,0000.0,0002.60,0008.47,0001.57
2023-11-08 10:12:00,SystemResetWarning,0825.3,5.01,000.00,027.5,026.5,000.0,035.9,028.9,14.7,0000.0,0002.71,0008.99,0001.61
2023-11-08 10:13:00,SystemResetWarning,0825.3,5.01,000.00,027.5,026.5,000.0,035.9,028.9,14.7,0000.0,0002.79,0009.92,0001.63
2023-11-08 10:14:00,SystemResetWarning,0825.3,5.00,000.00,027.5,026.5,000.0,035.9,028.9,14.7,0000.0,0002.83,0010.14,0001.65
2023-11-08 10:15:00,SystemResetWarning,0825.3,5.01,000.00,027.5,026.4,000.0,035.9,028.9,14.7,0000.0,0002.91,0010.28,0001.68
2023-11-08 10:16:00,SystemResetWarning,0825.3,5.00,000.00,027.5,026.4,000.0,035.9,028.9,14.7,0000.0,0002.99,0010.42,0001.71
2023-11-08 10:17:00,SystemResetWarning,0825.3,5.00,000.00,027.5,026.4,000.0,035.9,028.9,14.7,0000.0,0002.99,0010.40,0001.73
2023-11-08 10:18:00,SystemResetWarning,0825.4,5.00,000.00,027.5,026.4,000.0,035.9,028.9,14.7,0000.0,0002.98,0010.20,0001.75
2023-11-08 10:19:00,SystemResetWarning,0825.4,5.00,000.00,027.5,026.4,000.0,035.9,028.8,14.7,0000.0,0003.00,0010.29,0001.76
2023-11-08 10:20:00,SystemResetWarning,0825.4,5.00,000.00,027.5,026.4,000.0,035.9,028.8,14.6,0000.0,0002.99,0010.26,0001.77
2023-11-08 10:21:00,SystemResetWarning,0825.3,4.99,000.00,027.5,026.4,000.0,035.9,028.8,14.6,0000.0,0003.00,0010.04,0001.78
2023-11-08 10:22:00,SystemResetWarning,0825.3,5.00,000.00,027.5,026.4,000.0,035.9,028.8,14.6,0000.0,0002.95,0009.23,0001.77
2023-11-08 10:23:00,SystemResetWarning,0825.3,5.00,000.00,027.5,026.4,000.0,035.9,028.8,14.5,0000.0,0002.90,0008.73,0001.77
2023-11-08 10:24:00,SystemResetWarning,0825.3,5.01,000.00,027.5,026.4,000.0,035.9,028.8,14.5,0000.0,0002.84,0007.84,0001.75
2023-11-08 10:25:00,SystemResetWarning,0825.3,5.00,000.00,027.5,026.4,000.0,035.9,028.9,14.4,0000.0,0002.83,0007.46,0001.75
2023-11-08 10:26:00,SystemResetWarning,0825.3,5.00,000.00,027.4,026.4,000.0,035.9,028.9,14.4,0000.0,0002.78,0007.39,0001.74
2023-11-08 10:27:00,SystemResetWarning,0825.3,5.00,000.00,027.4,026.4,000.0,035.9,028.9,14.4,0000.0,0002.71,0007.31,0001.73
2023-11-08 10:28:00,SystemResetWarning,0825.3,5.00,000.00,027.4,026.4,000.0,035.9,028.9,14.3,0000.0,0002.76,0007.68,0001.73
2023-11-08 10:29:00,SystemResetWarning,0825.2,5.00,000.00,027.4,026.4,000.0,035.9,028.9,14.3,0000.0,0002.82,0008.35,0001.72
2023-11-08 10:30:00,SystemResetWarning,0825.3,5.00,000.00,027.4,026.4,000.0,035.9,028.9,14.2,0000.0,0002.85,0008.00,0001.73
2023-11-08 10:31:00,SystemResetWarning,0825.3,5.00,000.00,027.4,026.4,000.0,035.9,028.8,14.2,0000.0,0002.91,0007.78,0001.72
2023-11-08 10:32:00,SystemResetWarning,0825.4,4.99,000.00,027.4,026.4,000.0,035.9,028.9,14.3,0000.0,0002.89,0007.85,0001.72
2023-11-08 10:33:00,SystemResetWarning,0825.4,4.99,000.00,027.4,026.4,000.0,035.9,028.8,14.3,0000.0,0002.82,0007.68,0001.72
2023-11-08 10:34:00,SystemResetWarning,0825.4,5.00,000.00,027.4,026.3,000.0,035.8,028.8,14.3,0000.0,0002.80,0007.69,0001.72
2023-11-08 10:35:00,SystemResetWarning,0825.4,5.00,000.00,027.4,026.3,000.0,035.9,028.8,14.3,0000.0,0002.80,0007.88,0001.70
2023-11-08 10:36:00,SystemResetWarning,0825.4,5.00,000.00,027.4,026.3,000.0,035.8,028.8,14.3,0000.0,0002.84,0008.24,0001.70
2023-11-08 10:37:00,SystemResetWarning,0825.4,5.00,000.00,027.4,026.3,000.0,035.8,028.8,14.2,0000.0,0002.82,0008.42,0001.69
2023-11-08 10:38:00,SystemResetWarning,0825.4,5.00,000.00,027.4,026.2,000.0,035.8,028.8,14.2,0000.0,0002.79,0008.34,0001.67
2023-11-08 10:39:00,SystemResetWarning,0825.5,5.01,000.00,027.3,026.2,000.0,035.8,028.8,14.2,0000.0,0002.71,0007.87,0001.66
2023-11-08 10:40:00,SystemResetWarning,0825.5,5.00,000.00,027.3,026.2,000.0,035.8,028.7,14.2,0000.0,0002.60,0006.32,0001.63
2023-11-08 10:41:00,SystemResetWarning,0825.5,5.00,000.00,027.3,026.2,000.0,035.8,028.7,14.2,0000.0,0002.53,0006.02,0001.61
2023-11-08 10:42:00,SystemResetWarning,0825.5,4.99,000.00,027.3,026.1,000.0,035.8,028.7,14.4,0000.0,0002.39,0005.73,0001.59
2023-11-08 10:43:00,SystemResetWarning,0825.4,4.99,000.00,027.3,026.1,000.0,035.8,028.7,14.4,0000.0,0002.30,0005.15,0001.58
2023-11-08 10:44:00,SystemResetWarning,0825.5,5.00,000.00,027.3,026.1,000.0,035.8,028.7,14.3,0000.0,0002.35,0005.38,0001.59
2023-11-08 10:45:00,SystemResetWarning,0825.5,5.01,000.00,027.3,026.1,000.0,035.8,028.7,14.3,0000.0,0002.39,0005.52,0001.57
2023-11-08 10:46:00,SystemResetWarning,0825.5,5.01,000.00,027.3,026.1,000.0,035.8,028.6,14.2,0000.0,0002.36,0005.19,0001.57
2023-11-08 10:47:00,SystemResetWarning,0825.5,5.00,000.00,027.3,026.1,000.0,035.8,028.7,14.2,0000.0,0002.32,0006.50,0001.57
2023-11-08 10:48:00,SystemResetWarning,0825.5,5.00,000.00,027.3,026.1,000.0,035.8,028.6,14.2,0000.0,0002.36,0007.27,0001.57
2023-11-08 10:49:00,SystemResetWarning,0825.5,4.99,000.00,027.3,026.1,000.0,035.7,028.6,14.1,0000.0,0002.35,0008.22,0001.57
2023-11-08 10:50:00,SystemResetWarning,0825.6,5.00,000.00,027.3,026.1,000.0,035.7,028.6,14.2,0000.0,0002.39,0008.51,0001.56
2023-11-08 10:51:00,SystemResetWarning,0825.6,5.00,000.00,027.3,026.1,000.0,035.7,028.6,14.3,0000.0,0002.49,0009.78,0001.56
2023-11-08 10:52:00,SystemResetWarning,0825.6,5.01,000.00,027.3,026.1,000.0,035.7,028.6,14.5,0000.0,0002.55,0009.96,0001.57
2023-11-08 10:53:00,SystemResetWarning,0825.6,5.01,000.00,027.2,026.1,000.0,035.7,028.6,14.6,0000.0,0002.59,0010.18,0001.57
2023-11-08 10:54:00,SystemResetWarning,0825.6,5.01,000.00,027.2,026.0,000.0,035.7,028.6,14.6,0000.0,0002.59,0010.47,0001.58
2023-11-08 10:55:00,SystemResetWarning,0825.6,5.00,000.00,027.2,026.0,000.0,035.7,028.6,14.6,0000.0,0002.56,0011.21,0001.58
2023-11-08 10:56:00,SystemResetWarning,0825.6,4.99,000.00,027.2,026.0,000.0,035.7,028.6,14.6,0000.0,0002.56,0011.40,0001.60
2023-11-08 10:57:00,SystemResetWarning,0825.6,4.99,000.00,027.2,026.0,000.0,035.7,028.6,14.7,0000.0,0002.57,0011.38,0001.61
2023-11-08 10:58:00,SystemResetWarning,0825.6,5.01,000.00,027.2,026.0,000.0,035.7,028.6,14.7,0000.0,0002.58,0010.95,0001.61
2023-11-08 10:59:00,SystemResetWarning,0825.6,5.01,000.00,027.2,025.9,000.0,035.7,028.5,14.7,0000.0,0002.57,0010.27,0001.61
